Content
SEND FEEDBACK

Daily
Averages
Monthly
Summary
Canada

MONTREAL, QUEBEC


Home > North America > Canada > Quebec
Elevation: 118 feet     Latitude: 45 28N     Longitude: 073 45W

WEATHER
 
SELECT A DAY
Number of Records: 198,587;   Date Range: 1/1/95 - 8/31/14
 
SHARE

PRINT THIS DATA

[ ← Previous Day ]
WEATHER ALMANAC - NOVEMBER 9, 2013
[ Next Day → ]
[ °C ]   °F
Weather ElementAverageHighLow
Temperature35.7 °F39.2 °F (3:00 pm)32 °F (6:00 am)
Dewpoint24.8 °F30.2 °F (8:00 pm)19.4 °F (12:00 pm)
Humidity63.8 %81 % (8:00 pm)40 % (1:00 pm)
Barometer30.09 in30.18 in (8:00 am)29.92 in (11:00 pm)
Wind Speed9.7 mph19.6 mph (1:00 am)
Wind Gust25.3 mph (1:00 am)
Weather ElementAverage
Visibility18.4 mi
Wind DirectionSSW (206.2 °)

Weather ElementTotal
Precipitation---
Heating Degree Days29.4 (Base 65)
Averaged from 29 records on November 9, 2013
WEATHER CONDITIONS BREAKOUT
WIND DIRECTION BREAKOUT
WEATHER BY HOUR - NOVEMBER 9, 2013
[ °C ]   °F
Local TimeTemperatureDewpointHumidityBarometerVisibilityWind DirectionWind SpeedGust SpeedPrecipitationEventsConditions
1:00 AM35.0 °F24.0 °F51 %30.10 in15.0 miWest (260°)19.6 mphScattered Clouds
1:00 AM35.6 °F23.0 °F60 %30.10 in15.0 miWest (260°)18.4 mph25.3 mphPartly Cloudy
2:00 AM35.6 °F23.0 °F60 %30.11 in15.0 miWest (270°)15.0 mph21.9 mphScattered Clouds
3:00 AM35.6 °F23.0 °F60 %30.13 in15.0 miWest (270°)13.8 mphMostly Cloudy
4:00 AM35.6 °F23.0 °F60 %30.13 in15.0 miWest (280°)13.8 mphMostly Cloudy
5:00 AM35.6 °F23.0 °F60 %30.14 in15.0 miWest (270°)12.7 mphMostly Cloudy
6:00 AM32.0 °F23.0 °F69 %30.16 in15.0 miSW (230°)8.1 mphMostly Cloudy
7:00 AM32.0 °F24.8 °F75 %30.17 in15.0 miWSW (250°)9.2 mphMostly Cloudy
7:00 AM32.0 °F24.0 °F63 %30.17 in15.0 miWSW (240°)9.2 mphMostly Cloudy
8:00 AM32.0 °F24.8 °F75 %30.18 in15.0 miWest (260°)9.2 mphMostly Cloudy
9:00 AM35.6 °F24.8 °F65 %30.18 in15.0 miWest (260°)11.5 mphMostly Cloudy
10:00 AM37.4 °F23.0 °F56 %30.17 in30.0 miWest (280°)15.0 mphMostly Cloudy
11:00 AM37.4 °F21.2 °F52 %30.16 in30.0 miWSW (250°)12.7 mphMostly Cloudy
12:00 PM37.4 °F19.4 °F48 %30.13 in30.0 miSW (230°)8.1 mphOvercast
1:00 PM37.4 °F21.2 °F52 %30.11 in30.0 miSouth (190°)3.5 mphOvercast
1:00 PM37.0 °F21.0 °F40 %30.11 in28.0 miSouth (190°)5.8 mphOvercast
2:00 PM37.4 °F23.0 °F56 %30.08 in30.0 miSSW (210°)10.4 mphOvercast
3:00 PM39.2 °F23.0 °F52 %30.06 in30.0 miSW (220°)6.9 mphMostly Cloudy
4:00 PM37.4 °F24.8 °F60 %30.06 in30.0 miWSW (240°)4.6 mphMostly Cloudy
5:00 PM37.4 °F24.8 °F60 %30.04 in15.0 miSSE (160°)4.6 mphOvercast
6:00 PM37.4 °F23.0 °F56 %30.04 in15.0 miSouth (170°)10.4 mphOvercast
6:20 PM35.6 °F26.6 °F70 %30.05 in6.0 miSouth (170°)10.4 mphSnowLight Snow
7:00 PM35.6 °F28.4 °F75 %30.05 in12.0 miSouth (170°)5.8 mphSnowLight Snow
7:00 PM35.0 °F29.0 °F70 %30.05 in12.0 miSouth (180°)5.8 mphSnowLight Snow
8:00 PM35.6 °F30.2 °F81 %30.02 in15.0 miEast (100°)4.6 mphOvercast
8:23 PM35.6 °F30.2 °F81 %30.01 in12.0 miEast (90°)5.8 mphSnowLight Snow
9:00 PM35.6 °F30.2 °F81 %29.99 in15.0 miEast (90°)6.9 mphOvercast
10:00 PM35.6 °F30.2 °F81 %29.95 in15.0 miEast (90°)9.2 mphOvercast
11:00 PM35.6 °F30.2 °F81 %29.92 in15.0 miEast (100°)10.4 mphOvercast
Hourly data recorded from CYUL, located miles away from Montreal, Quebec







STORIES FROM OUR PARTNERS